Location: Mount Cross
(36.6390°N, 79.4878°W)
Time: 00:43:01
(UTC+00:00)

SR - Pass Details

Date: 01 April 2023
Orbit: 580 x 867 km, 66.7° (Epoch: 08 June)

Event Time Altitude Azimuth Distance (km) Brightness Sun altitude
Rises 14:10:10 0° 342° (NNW) 2,826 ? 35.7°
Reaches altitude 10° 14:12:34 10° 353° (N) 1,944 ? 36.1°
Maximum altitude 14:16:28 31° 57° (ENE) 1,088 ? 36.9°
Drops below altitude 10° 14:20:33 10° 120° (ESE) 2,048 ? 37.6°
Sets 14:23:08 0° 130° (SE) 3,005 ? 38.1°
